Welcome to the New NWS' Forecast!
Most changes are behind the scenes, but click here for differences you might notice.

Regional Weather Roundup (RWR)

Issued by National Weather Service (NWS)

                            
000
ASUS44 KOUN 230710
RWROK 

WEATHER ROUNDUP FOR OKLAHOMA
NATIONAL WEATHER SERVICE NORMAN OK
200 AM CDT TUE OCT 23 2018

NOTE: "FAIR" INDICATES FEW OR NO CLOUDS BELOW 12,000 FEET WITH NO
      SIGNIFICANT WEATHER AND/OR OBSTRUCTIONS TO VISIBILITY.

OKZ001>007-009>012-014-015-017-230800-
NORTHWEST OKLAHOMA AND THE PANHANDLE
  
CITY           SKY/WX    TMP DP  RH WIND       PRES   REMARKS
GAGE           CLEAR     53  49  86 SE7       30.15S                  
GUYMON         CLEAR     49  43  80 N8        30.16R                  
ENID/WOODRING  CLOUDY    52  50  93 S3        30.18S                  
$$

OKZ016-021>023-033>039-044-045-230800-
SOUTHWEST OKLAHOMA
  
CITY           SKY/WX    TMP DP  RH WIND       PRES   REMARKS
LAWTON/REGL    CLOUDY    57  52  83 E5        30.17S                  
LAWTON/FT SILL CLOUDY    56  51  83 SE3       30.16S                  
FREDERICK      CLOUDY    57  53  86 E6        30.13S                  
CLINTON        CLOUDY    54  50  86 S10       30.17S                  
HOBART         CLOUDY    57  51  80 SE8       30.16F                  
ALTUS AFB      MOCLDY    53  50  90 SE5       30.15S                  
$$

OKZ018>020-024>031-230800-
CENTRAL OKLAHOMA
  
CITY           SKY/WX    TMP DP  RH WIND       PRES   REMARKS
OKLAHOMA CITY  MOCLDY    48  47  96 S3        30.19S                  
OKC/WILEY POST MOCLDY    53  48  83 S7        30.19S                  
OKC/TINKER AFB PTCLDY    51  48  88 SE3       30.18F                  
STILLWATER     CLOUDY    52  47  83 CALM      30.19S                  
GUTHRIE        CLEAR     50  47  89 S3        30.19S                  
$$

OKZ008-013-054>072-230800-
NORTHEAST OKLAHOMA
  
CITY           SKY/WX    TMP DP  RH WIND       PRES   REMARKS
TULSA          MOCLDY    52  46  80 SE3       30.21R                  
TULSA/JONES    PTCLDY    49  47  93 CALM      30.22R                  
PONCA CITY     CLOUDY    55  48  77 CALM      30.20S                  
BARTLESVILLE   PTCLDY    46  44  93 CALM      30.23S                  
MUSKOGEE       CLOUDY    48  48 100 SE3       30.23S                  
$$

OKZ032-040>043-046>053-073>077-230800-
SOUTH CENTRAL/SOUTHEAST OKLAHOMA
  
CITY           SKY/WX    TMP DP  RH WIND       PRES   REMARKS
ARDMORE/DWNTWN CLOUDY    52  48  87 CALM      30.20R                  
MCALESTER      MOCLDY    48  46  93 CALM      30.22S                  
$$